Vancouver, British Columbia

5:21 AM PDT on June 29, 2017 (GMT -0700)
Vancouver International Airport

Weather History for CYVR - May, 2014

Change the Weather History Date:

Monday, May 26, 2014

  Actual Average Record
Temperature  
Mean Temperature 58 °F -  
Max Temperature 65 °F 66 °F 75 °F (2005)
Min Temperature 51 °F 51 °F 44 °F (1999)
Degree Days  
Heating Degree Days 6    
Growing Degree Days 8 (Base 50)    
Moisture  
Dew Point 50 °F    
Average Humidity 78    
Maximum Humidity 100    
Minimum Humidity 45    
Precipitation  
Precipitation 0.08 in 0.06 in - ()
Sea Level Pressure  
Sea Level Pressure 30.06 in    
Wind  
Wind Speed 7 mph ()    
Max Wind Speed 14 mph    
Max Gust Speed 22 mph    
Visibility 13.3 miles    
Events Rain    
Averages and records for this station are not official NWS values.
T = Trace of Precipitation, MM = Missing Value Source: Averaged Metar Reports

Daily Weather History Graph

Daily Weather History Graph

Search for Another Location

Airport or City:

Trip Planner

Search our weather history database for the weather conditions in past years. The results will help you decide how hot, cold, wet, or windy it might be!

Date:

Astronomy

May. 26, 2014 Rise Set
Actual Time 5:17 AM PDT 9:03 PM PDT
Civil Twilight 4:36 AM PDT 9:43 PM PDT
Nautical Twilight 3:41 AM PDT 10:39 PM PDT
Astronomical Twilight 2:19 AM PDT 12:03 AM PDT
Moon 4:16 AM PDT (5/26) 7:00 PM PDT (5/26)
Length of Visible Light 17h 07m
Length of Day
15h 46m
Waning Crescent, 4% of the Moon is Illuminated
May 26
Waning Crescent
May 28
New
Jun 5
First Quarter
Jun 12
Full
Jun 19
Last Quarter

Hourly Weather History & Observations

Time (PDT) Temp. Dew Point Humidity Pressure Visibility Wind Dir Wind Speed Gust Speed Precip Events Conditions
12:00 AM 53.6 °F 51.8 °F 94% 29.99 in 12.0 mi East 6.9 mph - N/A Rain Light Rain Showers
1:00 AM 53.6 °F 51.8 °F 94% 29.99 in 12.0 mi East 4.6 mph - N/A Rain Light Rain Showers
2:00 AM 53.6 °F 51.8 °F 94% 29.99 in 12.0 mi ESE 6.9 mph - N/A Rain Light Rain Showers
3:00 AM 53.6 °F 51.8 °F 94% 29.99 in 12.0 mi East 6.9 mph - N/A Rain Light Rain Showers
4:00 AM 53.6 °F 51.8 °F 94% 29.99 in 12.0 mi ESE 6.9 mph - N/A Rain Light Rain Showers
5:00 AM 53 °F 52 °F 95% 29.99 in 7 mi SE 6.9 mph - - Rain Light Rain
5:00 AM 53.6 °F 51.8 °F 94% 29.99 in 8.0 mi ESE 6.9 mph - N/A Rain Light Rain
5:06 AM 53.6 °F 51.8 °F 94% 29.99 in 8.0 mi SE 8.1 mph - N/A   Overcast
5:41 AM 53.6 °F 51.8 °F 94% 30.00 in 10.0 mi SE 8.1 mph - N/A Rain Light Rain Showers
5:53 AM 51.8 °F 51.8 °F 100% 30.00 in 4.0 mi SE 8.1 mph - N/A Rain Rain
6:00 AM 51.8 °F 51.8 °F 100% 30.00 in 6.0 mi SE 5.8 mph - N/A Rain Rain
6:12 AM 51.8 °F 51.8 °F 100% 30.00 in 8.0 mi SE 6.9 mph - N/A Rain Light Rain
6:37 AM 51.8 °F 51.8 °F 100% 30.00 in 10.0 mi SE 6.9 mph - N/A   Mostly Cloudy
7:00 AM 53.6 °F 51.8 °F 94% 30.01 in 10.0 mi ESE 5.8 mph - N/A   Mostly Cloudy
8:00 AM 55.4 °F 51.8 °F 88% 30.02 in 12.0 mi SSE 8.1 mph - N/A   Mostly Cloudy
9:00 AM 57.2 °F 53.6 °F 88% 30.04 in 15.0 mi SSE 8.1 mph - N/A   Mostly Cloudy
10:00 AM 59.0 °F 51.8 °F 77% 30.06 in 20.0 mi SSW 12.7 mph - N/A   Scattered Clouds
11:00 AM 61 °F 51 °F 60% 30.07 in 19 mi SW 11.5 mph - -   Partly Cloudy
11:00 AM 60.8 °F 50.0 °F 68% 30.07 in 20.0 mi SW 11.5 mph - N/A   Scattered Clouds
12:00 PM 62.6 °F 46.4 °F 55% 30.08 in 20.0 mi SW 11.5 mph - N/A   Partly Cloudy
1:00 PM 62.6 °F 48.2 °F 59% 30.10 in 20.0 mi SW 10.4 mph - N/A   Partly Cloudy
2:00 PM 60.8 °F 46.4 °F 59% 30.12 in 20.0 mi SSW 11.5 mph - N/A   Mostly Cloudy
3:00 PM 64.4 °F 48.2 °F 56% 30.13 in 30.0 mi SSW 12.7 mph - N/A   Scattered Clouds
4:00 PM 64.4 °F 48.2 °F 56% 30.13 in 30.0 mi SSW 6.9 mph 19.6 mph N/A   Scattered Clouds
4:31 PM 64.4 °F 48.2 °F 56% 30.13 in 30.0 mi SE 11.5 mph 21.9 mph N/A   Scattered Clouds
5:00 PM 64 °F 48 °F 45% 30.13 in 28 mi SSE 8.1 mph - -   Scattered Clouds
5:00 PM 64.4 °F 48.2 °F 56% 30.13 in 30.0 mi SE 5.8 mph - N/A   Scattered Clouds
6:00 PM 62.6 °F 46.4 °F 55% 30.13 in 30.0 mi SE 13.8 mph - N/A   Scattered Clouds
7:00 PM 60.8 °F 46.4 °F 59% 30.13 in 30.0 mi SE 10.4 mph - N/A   Partly Cloudy
8:00 PM 59.0 °F 46.4 °F 63% 30.14 in 30.0 mi SSE 6.9 mph - N/A   Scattered Clouds
9:00 PM 55.4 °F 48.2 °F 77% 30.15 in 20.0 mi East 8.1 mph - N/A   Partly Cloudy
10:00 PM 55.4 °F 48.2 °F 77% 30.17 in 20.0 mi East 9.2 mph - N/A   Partly Cloudy
11:00 PM 53 °F 46 °F 71% 30.17 in 15 mi East 6.9 mph - -   Scattered Clouds
11:00 PM 51.8 °F 46.4 °F 82% 30.17 in 15.0 mi East 6.9 mph - N/A   Partly Cloudy